AAL3036 KTPA-KDCA

Flight info

Callsign AAL3036
Flight time 1h 49m
Altitude 37000
Route BAYPO2 CAMJO Q99 OGRAE FUUFF WAVES CAPSS4
Aircraft A320/M-VGDW/C

Departure

Time 2026-05-04 20:47
Airport Tampa International Airport (KTPA)

Arrival

Time 2026-05-04 22:37
Airport Ronald Reagan Washington National Airport (KDCA)
Time Latitude Longitude Altitude Speed Heading
2026-05-04 20:26 27.97696 -82.53878 36 ft 0 kts 68°
2026-05-04 20:39 27.97692 -82.53889 34 ft 2 kts 69°
2026-05-04 20:39 27.97686 -82.53906 33 ft 2 kts 71°
2026-05-04 20:40 27.97681 -82.53924 34 ft 2 kts 73°
2026-05-04 20:40 27.97677 -82.53942 34 ft 2 kts 78°
2026-05-04 20:40 27.97674 -82.53960 35 ft 2 kts 94°
2026-05-04 20:40 27.97679 -82.53977 35 ft 2 kts 163°
2026-05-04 20:41 27.97687 -82.53980 30 ft 1 kts 182°
2026-05-04 20:41 27.97689 -82.53980 31 ft 0 kts 184°
2026-05-04 20:42 27.97655 -82.53981 34 ft 5 kts 180°
2026-05-04 20:43 27.97623 -82.53982 35 ft 4 kts 184°
2026-05-04 20:43 27.97594 -82.53985 34 ft 4 kts 185°
2026-05-04 20:43 27.97551 -82.53988 34 ft 12 kts 182°
2026-05-04 20:43 27.97460 -82.53990 34 ft 13 kts 180°
2026-05-04 20:44 27.97381 -82.53992 35 ft 10 kts 182°
2026-05-04 20:44 27.97342 -82.54010 36 ft 4 kts 265°
2026-05-04 20:44 27.97340 -82.54035 36 ft 2 kts 267°
2026-05-04 20:44 27.97309 -82.54078 36 ft 15 kts 196°
2026-05-04 20:45 27.97181 -82.54084 38 ft 19 kts 184°
2026-05-04 20:45 27.97049 -82.54088 40 ft 19 kts 181°
2026-05-04 20:45 27.96910 -82.54091 39 ft 21 kts 181°
2026-05-04 20:45 27.96749 -82.54096 36 ft 25 kts 182°
2026-05-04 20:46 27.96567 -82.54103 33 ft 28 kts 181°
2026-05-04 20:46 27.96424 -82.54135 29 ft 16 kts 231°
2026-05-04 20:46 27.96451 -82.54230 31 ft 12 kts 341°
2026-05-04 20:46 27.96522 -82.54229 33 ft 9 kts
2026-05-04 20:47 27.96677 -82.54224 36 ft 52 kts
2026-05-04 20:47 27.97289 -82.54202 37 ft 121 kts
2026-05-04 20:47 27.98320 -82.54168 88 ft 168 kts
2026-05-04 20:47 27.99458 -82.54161 853 ft 162 kts
2026-05-04 20:48 28.00571 -82.54230 1603 ft 162 kts 360°
2026-05-04 20:48 28.01736 -82.54340 2152 ft 178 kts 355°
2026-05-04 20:48 28.03040 -82.54548 2534 ft 201 kts 354°
2026-05-04 20:48 28.04499 -82.54806 2934 ft 221 kts 353°
2026-05-04 20:49 28.06087 -82.55095 3419 ft 239 kts 353°
2026-05-04 20:49 28.07758 -82.55402 4137 ft 247 kts 353°
2026-05-04 20:49 28.09469 -82.55717 4935 ft 251 kts 352°
2026-05-04 20:49 28.11188 -82.56032 5723 ft 255 kts 352°
2026-05-04 20:50 28.12958 -82.56353 6525 ft 259 kts 351°
2026-05-04 20:50 28.14794 -82.56686 7082 ft 276 kts 350°
2026-05-04 20:50 28.16739 -82.57038 7801 ft 286 kts 349°
2026-05-04 20:50 28.18697 -82.57392 8688 ft 290 kts 348°
2026-05-04 20:51 28.20724 -82.57631 9581 ft 295 kts 356°
2026-05-04 20:51 28.22807 -82.57697 10326 ft 305 kts 356°
2026-05-04 20:51 28.25019 -82.57763 10635 ft 329 kts 356°
2026-05-04 20:51 28.27348 -82.57831 11084 ft 344 kts 356°
2026-05-04 20:52 28.29766 -82.57900 11821 ft 349 kts 356°
2026-05-04 20:52 28.32214 -82.57969 12616 ft 353 kts 356°
2026-05-04 20:52 28.34680 -82.58038 13416 ft 356 kts 356°
2026-05-04 20:52 28.37170 -82.58108 14162 ft 359 kts 356°
2026-05-04 20:53 28.39684 -82.58174 14827 ft 362 kts 355°
2026-05-04 20:53 28.42230 -82.58239 15484 ft 366 kts 355°
2026-05-04 20:53 28.44766 -82.58303 16122 ft 370 kts 355°
2026-05-04 20:53 28.47354 -82.58368 16788 ft 374 kts 355°
2026-05-04 20:54 28.49974 -82.58433 17439 ft 377 kts 354°
2026-05-04 20:54 28.52625 -82.58496 18080 ft 381 kts 354°
2026-05-04 20:54 28.55264 -82.58559 18657 ft 385 kts 354°
2026-05-04 20:54 28.57957 -82.58625 19229 ft 388 kts 354°
2026-05-04 20:55 28.60666 -82.58693 19822 ft 390 kts 354°
2026-05-04 20:55 28.63400 -82.58763 20414 ft 393 kts 353°
2026-05-04 20:55 28.66118 -82.58834 21003 ft 396 kts 353°
2026-05-04 20:55 28.68852 -82.59103 21582 ft 395 kts 347°
2026-05-04 20:56 28.71595 -82.59485 22172 ft 397 kts 347°
2026-05-04 20:56 28.74346 -82.59870 22743 ft 400 kts 347°
2026-05-04 20:56 28.77125 -82.60256 23332 ft 402 kts 347°
2026-05-04 20:56 28.79924 -82.60646 23838 ft 405 kts 347°
2026-05-04 20:57 28.82692 -82.61031 24281 ft 407 kts 346°
2026-05-04 20:57 28.85513 -82.61423 24707 ft 410 kts 346°
2026-05-04 20:57 28.88359 -82.61821 25136 ft 412 kts 346°
2026-05-04 20:57 28.91218 -82.62221 25555 ft 414 kts 346°
2026-05-04 20:58 28.94089 -82.62622 25965 ft 416 kts 346°
2026-05-04 20:58 28.96974 -82.63025 26357 ft 419 kts 346°
2026-05-04 20:58 28.99877 -82.63432 26753 ft 421 kts 346°
2026-05-04 20:58 29.02763 -82.63836 27149 ft 423 kts 346°
2026-05-04 20:59 29.05696 -82.64247 27562 ft 425 kts 346°
2026-05-04 20:59 29.08644 -82.64660 27943 ft 427 kts 346°
2026-05-04 20:59 29.11601 -82.65076 28323 ft 429 kts 346°
2026-05-04 20:59 29.14585 -82.65498 28690 ft 431 kts 346°
2026-05-04 21:00 29.17572 -82.65919 29038 ft 433 kts 346°
2026-05-04 21:00 29.20538 -82.66335 29390 ft 435 kts 346°
2026-05-04 21:00 29.23552 -82.66757 29722 ft 437 kts 346°
2026-05-04 21:00 29.26579 -82.67184 30048 ft 439 kts 346°
2026-05-04 21:01 29.29633 -82.67612 30328 ft 442 kts 346°
2026-05-04 21:01 29.32697 -82.68042 30573 ft 444 kts 346°
2026-05-04 21:01 29.35735 -82.68470 30863 ft 445 kts 346°
2026-05-04 21:01 29.38819 -82.68904 31116 ft 446 kts 346°
2026-05-04 21:02 29.41920 -82.69286 31348 ft 452 kts 350°
2026-05-04 21:02 29.45080 -82.69302 31650 ft 454 kts 353°
2026-05-04 21:02 29.48240 -82.69276 31979 ft 454 kts 353°
2026-05-04 21:02 29.51402 -82.69253 32310 ft 453 kts 353°
2026-05-04 21:03 29.54551 -82.69237 32630 ft 452 kts 353°
2026-05-04 21:03 29.57693 -82.69221 32949 ft 452 kts 353°
2026-05-04 21:03 29.60843 -82.69203 33270 ft 451 kts 353°
2026-05-04 21:03 29.63942 -82.69183 33631 ft 451 kts 353°
2026-05-04 21:04 29.67079 -82.69160 33954 ft 450 kts 353°
2026-05-04 21:04 29.70216 -82.69138 34251 ft 450 kts 352°
2026-05-04 21:04 29.73350 -82.69118 34530 ft 449 kts 352°
2026-05-04 21:04 29.76481 -82.69101 34821 ft 449 kts 352°
2026-05-04 21:05 29.79607 -82.69083 35099 ft 448 kts 352°
2026-05-04 21:05 29.82685 -82.69065 35374 ft 447 kts 352°
2026-05-04 21:05 29.85799 -82.69047 35639 ft 446 kts 352°
2026-05-04 21:05 29.88903 -82.69028 35894 ft 446 kts 352°
2026-05-04 21:06 29.92012 -82.69009 36168 ft 445 kts 352°
2026-05-04 21:06 29.95117 -82.68988 36401 ft 445 kts 352°
2026-05-04 21:06 29.98214 -82.68970 36642 ft 444 kts 352°
2026-05-04 21:06 30.01271 -82.68950 36863 ft 444 kts 352°
2026-05-04 21:07 30.04363 -82.68930 37028 ft 444 kts 352°
2026-05-04 21:07 30.07453 -82.68912 37066 ft 443 kts 352°
2026-05-04 21:07 30.13622 -82.68870 37057 ft 442 kts 352°
2026-05-04 21:08 30.19748 -82.68827 37115 ft 442 kts 351°
2026-05-04 21:08 30.25901 -82.68793 37096 ft 442 kts 351°
2026-05-04 21:09 30.32012 -82.68764 37098 ft 442 kts 351°
2026-05-04 21:09 30.38171 -82.68731 37099 ft 442 kts 351°
2026-05-04 21:10 30.44337 -82.68688 37104 ft 442 kts 351°
2026-05-04 21:10 30.50455 -82.68601 37106 ft 446 kts 355°
2026-05-04 21:11 30.56676 -82.67422 37104 ft 454 kts
2026-05-04 21:11 30.62904 -82.66083 37104 ft 454 kts
2026-05-04 21:12 30.69129 -82.64752 37105 ft 454 kts
2026-05-04 21:12 30.75318 -82.63437 37133 ft 454 kts
2026-05-04 21:13 30.81557 -82.62108 37107 ft 455 kts
2026-05-04 21:13 30.87788 -82.60770 37097 ft 455 kts
2026-05-04 21:14 30.93986 -82.59443 37098 ft 455 kts
2026-05-04 21:14 31.00222 -82.58100 37090 ft 455 kts
2026-05-04 21:15 31.06414 -82.56755 37077 ft 455 kts
2026-05-04 21:15 31.09488 -82.55679 37070 ft 466 kts 13°
2026-05-04 21:15 31.12453 -82.54028 37071 ft 474 kts 19°
2026-05-04 21:16 31.18314 -82.50455 37076 ft 475 kts 19°
2026-05-04 21:16 31.24180 -82.46883 37056 ft 475 kts 19°
2026-05-04 21:17 31.30015 -82.43336 37111 ft 475 kts 19°
2026-05-04 21:17 31.35888 -82.39768 37099 ft 476 kts 19°
2026-05-04 21:18 31.41768 -82.36180 37070 ft 477 kts 19°
2026-05-04 21:18 31.47664 -82.32583 37061 ft 477 kts 19°
2026-05-04 21:19 31.53567 -82.28979 37067 ft 478 kts 19°
2026-05-04 21:19 31.59446 -82.25374 37116 ft 478 kts 19°
2026-05-04 21:20 31.65360 -82.21743 37100 ft 478 kts 19°
2026-05-04 21:20 31.71228 -82.18136 37097 ft 478 kts 19°
2026-05-04 21:21 31.77138 -82.14504 37086 ft 478 kts 19°
2026-05-04 21:21 31.83006 -82.10892 37143 ft 478 kts 19°
2026-05-04 21:22 31.88877 -82.07268 37061 ft 475 kts 19°
2026-05-04 21:22 31.94729 -82.03656 37060 ft 475 kts 19°
2026-05-04 21:23 32.00582 -82.00027 37063 ft 475 kts 20°
2026-05-04 21:23 32.06451 -81.96390 37068 ft 476 kts 19°
2026-05-04 21:24 32.12285 -81.92770 37097 ft 475 kts 20°
2026-05-04 21:24 32.18156 -81.89177 37090 ft 474 kts 19°
2026-05-04 21:25 32.24040 -81.85746 37083 ft 473 kts 18°
2026-05-04 21:25 32.29957 -81.82333 37081 ft 473 kts 18°
2026-05-04 21:26 32.35862 -81.78879 37111 ft 473 kts 19°
2026-05-04 21:26 32.41689 -81.75432 37044 ft 469 kts 19°
2026-05-04 21:27 32.47538 -81.71972 37045 ft 469 kts 19°
2026-05-04 21:27 32.53392 -81.68518 37046 ft 469 kts 19°
2026-05-04 21:28 32.59199 -81.65087 37068 ft 469 kts 19°
2026-05-04 21:28 32.65064 -81.61620 37103 ft 470 kts 19°
2026-05-04 21:29 32.70918 -81.58147 37094 ft 470 kts 19°
2026-05-04 21:29 32.76743 -81.54682 37076 ft 470 kts 19°
2026-05-04 21:30 32.82601 -81.51191 37075 ft 470 kts 19°
2026-05-04 21:30 32.88427 -81.47714 37097 ft 470 kts 19°
2026-05-04 21:31 32.96234 -81.43057 37079 ft 470 kts 19°
2026-05-04 21:32 33.02067 -81.39570 37072 ft 470 kts 19°
2026-05-04 21:32 33.07924 -81.36066 37077 ft 470 kts 19°
2026-05-04 21:33 33.13776 -81.32561 37076 ft 470 kts 19°
2026-05-04 21:33 33.19595 -81.29071 37075 ft 470 kts 19°
2026-05-04 21:34 33.25452 -81.25551 37069 ft 471 kts 20°
2026-05-04 21:34 33.31312 -81.22015 37070 ft 471 kts 20°
2026-05-04 21:35 33.37142 -81.18489 37091 ft 472 kts 20°
2026-05-04 21:35 33.43010 -81.14938 37076 ft 471 kts 20°
2026-05-04 21:36 33.48830 -81.11419 37061 ft 471 kts 20°
2026-05-04 21:36 33.54696 -81.07867 37055 ft 471 kts 20°
2026-05-04 21:37 33.60556 -81.04304 37054 ft 471 kts 20°
2026-05-04 21:37 33.66396 -81.00746 37050 ft 469 kts 20°
2026-05-04 21:38 33.72182 -80.97227 37048 ft 469 kts 20°
2026-05-04 21:38 33.78012 -80.93676 37043 ft 469 kts 20°
2026-05-04 21:39 33.83803 -80.90131 37027 ft 470 kts 22°
2026-05-04 21:39 33.89219 -80.85560 37054 ft 478 kts 32°
2026-05-04 21:40 33.94475 -80.80627 37048 ft 478 kts 32°
2026-05-04 21:40 33.99724 -80.75695 37046 ft 478 kts 32°
2026-05-04 21:41 34.04941 -80.70804 37048 ft 478 kts 32°
2026-05-04 21:41 34.10198 -80.65865 37050 ft 478 kts 32°
2026-05-04 21:42 34.15436 -80.60919 37057 ft 475 kts 32°
2026-05-04 21:42 34.20605 -80.56031 37054 ft 475 kts 32°
2026-05-04 21:43 34.25804 -80.51103 37046 ft 474 kts 32°
2026-05-04 21:43 34.31033 -80.46219 37039 ft 474 kts 32°
2026-05-04 21:44 34.36294 -80.41401 37075 ft 474 kts 31°
2026-05-04 21:44 34.41525 -80.36610 37079 ft 474 kts 32°
2026-05-04 21:45 34.46776 -80.31763 37076 ft 474 kts 32°
2026-05-04 21:45 34.52020 -80.26899 37070 ft 474 kts 32°
2026-05-04 21:46 34.57252 -80.22041 37063 ft 473 kts 32°
2026-05-04 21:46 34.62454 -80.17203 37068 ft 473 kts 32°
2026-05-04 21:47 34.67676 -80.12334 37045 ft 473 kts 32°
2026-05-04 21:47 34.72909 -80.07454 37033 ft 473 kts 32°
2026-05-04 21:48 34.78115 -80.02614 37031 ft 474 kts 32°
2026-05-04 21:48 34.83377 -79.97747 37066 ft 473 kts 31°
2026-05-04 21:49 34.88711 -79.93038 37064 ft 472 kts 30°
2026-05-04 21:49 34.94033 -79.88421 37057 ft 472 kts 30°
2026-05-04 21:50 34.99380 -79.83725 37053 ft 472 kts 30°
2026-05-04 21:50 35.04658 -79.79033 37048 ft 472 kts 31°
2026-05-04 21:51 35.09972 -79.74291 37052 ft 472 kts 31°
2026-05-04 21:51 35.15255 -79.69576 37026 ft 472 kts 30°
2026-05-04 21:52 35.20608 -79.64917 37029 ft 471 kts 29°
2026-05-04 21:52 35.25976 -79.60390 37026 ft 471 kts 28°
2026-05-04 21:53 35.31382 -79.55820 37070 ft 471 kts 29°
2026-05-04 21:53 35.36729 -79.51239 37058 ft 472 kts 29°
2026-05-04 21:54 35.42108 -79.46597 37051 ft 472 kts 30°
2026-05-04 21:54 35.47491 -79.41960 37042 ft 472 kts 29°
2026-05-04 21:55 35.52844 -79.37352 37036 ft 473 kts 29°
2026-05-04 21:55 35.58242 -79.32698 37027 ft 473 kts 29°
2026-05-04 21:56 35.63641 -79.28044 37023 ft 473 kts 29°
2026-05-04 21:56 35.69010 -79.23398 37027 ft 473 kts 29°
2026-05-04 21:57 35.74374 -79.18649 37025 ft 476 kts 34°
2026-05-04 21:57 35.79167 -79.12989 37053 ft 480 kts 39°
2026-05-04 21:58 35.83941 -79.07210 37045 ft 480 kts 39°
2026-05-04 21:58 35.88722 -79.01432 37031 ft 481 kts 39°
2026-05-04 21:59 35.93490 -78.95644 37024 ft 481 kts 39°
2026-05-04 21:59 35.98235 -78.89876 37022 ft 481 kts 39°
2026-05-04 22:00 36.03008 -78.84060 37030 ft 481 kts 39°
2026-05-04 22:00 36.07755 -78.78267 37024 ft 481 kts 39°
2026-05-04 22:01 36.12520 -78.72434 37023 ft 482 kts 39°
2026-05-04 22:01 36.17285 -78.66584 37013 ft 482 kts 39°
2026-05-04 22:02 36.22059 -78.60732 37044 ft 483 kts 39°
2026-05-04 22:02 36.26800 -78.54904 37031 ft 483 kts 39°
2026-05-04 22:03 36.31562 -78.49032 37025 ft 483 kts 40°
2026-05-04 22:03 36.36323 -78.43152 37023 ft 482 kts 40°
2026-05-04 22:04 36.41143 -78.37370 37021 ft 478 kts 33°
2026-05-04 22:04 36.46628 -78.32861 37039 ft 471 kts 25°
2026-05-04 22:05 36.52173 -78.28598 36983 ft 471 kts 25°
2026-05-04 22:05 36.54980 -78.26428 36111 ft 479 kts 25°
2026-05-04 22:05 36.57830 -78.24221 36012 ft 481 kts 25°
2026-05-04 22:06 36.63547 -78.19774 36047 ft 484 kts 26°
2026-05-04 22:06 36.69214 -78.15360 36052 ft 483 kts 25°
2026-05-04 22:07 36.74922 -78.10913 36055 ft 483 kts 25°
2026-05-04 22:07 36.80633 -78.06463 36048 ft 483 kts 25°
2026-05-04 22:08 36.86291 -78.02049 36035 ft 483 kts 25°
2026-05-04 22:08 36.91970 -77.97609 35981 ft 479 kts 26°
2026-05-04 22:09 36.97614 -77.93186 35981 ft 480 kts 26°
2026-05-04 22:09 37.03277 -77.88732 35980 ft 480 kts 26°
2026-05-04 22:10 37.08940 -77.84271 36013 ft 480 kts 26°
2026-05-04 22:10 37.14525 -77.79866 35997 ft 475 kts 26°
2026-05-04 22:10 37.17318 -77.77664 35176 ft 473 kts 26°
2026-05-04 22:11 37.20074 -77.75487 34366 ft 461 kts 26°
2026-05-04 22:11 37.22754 -77.73360 33542 ft 449 kts 26°
2026-05-04 22:11 37.25370 -77.71281 32592 ft 440 kts 26°
2026-05-04 22:11 37.27902 -77.69276 31660 ft 433 kts 26°
2026-05-04 22:12 37.30438 -77.67274 30746 ft 426 kts 26°
2026-05-04 22:12 37.32935 -77.65303 29863 ft 420 kts 27°
2026-05-04 22:12 37.35389 -77.63357 28849 ft 414 kts 27°
2026-05-04 22:12 37.37812 -77.61429 27875 ft 409 kts 27°
2026-05-04 22:13 37.40204 -77.59527 26940 ft 404 kts 27°
2026-05-04 22:13 37.42541 -77.57671 26066 ft 399 kts 26°
2026-05-04 22:13 37.44878 -77.55812 25218 ft 394 kts 26°
2026-05-04 22:13 37.47186 -77.53974 24452 ft 390 kts 26°
2026-05-04 22:14 37.49485 -77.52141 23971 ft 391 kts 26°
2026-05-04 22:14 37.51794 -77.50303 23475 ft 397 kts 26°
2026-05-04 22:14 37.54142 -77.48436 22910 ft 398 kts 26°
2026-05-04 22:14 37.56454 -77.46594 22416 ft 397 kts 26°
2026-05-04 22:15 37.58863 -77.44981 21934 ft 387 kts 16°
2026-05-04 22:15 37.61388 -77.43953 21560 ft 378 kts
2026-05-04 22:15 37.63939 -77.43177 21191 ft 376 kts
2026-05-04 22:15 37.66482 -77.42395 20822 ft 374 kts
2026-05-04 22:16 37.69006 -77.41613 20452 ft 372 kts
2026-05-04 22:16 37.71523 -77.40832 20075 ft 370 kts
2026-05-04 22:16 37.73985 -77.40071 19725 ft 368 kts
2026-05-04 22:16 37.76470 -77.39301 19364 ft 366 kts
2026-05-04 22:17 37.78948 -77.38533 19008 ft 364 kts
2026-05-04 22:17 37.81404 -77.37773 18650 ft 362 kts
2026-05-04 22:17 37.83851 -77.37019 18291 ft 360 kts
2026-05-04 22:17 37.86253 -77.36279 17907 ft 358 kts
2026-05-04 22:18 37.88679 -77.35526 17550 ft 356 kts
2026-05-04 22:18 37.91084 -77.34780 17227 ft 353 kts
2026-05-04 22:18 37.93474 -77.34045 16955 ft 352 kts
2026-05-04 22:18 37.95053 -77.33562 16727 ft 351 kts
2026-05-04 22:19 37.98195 -77.32602 16265 ft 349 kts
2026-05-04 22:19 38.00563 -77.31875 15907 ft 349 kts
2026-05-04 22:19 38.02125 -77.31392 15677 ft 348 kts
2026-05-04 22:19 38.04475 -77.30666 15331 ft 346 kts
2026-05-04 22:20 38.06813 -77.29944 14984 ft 344 kts
2026-05-04 22:20 38.09141 -77.29222 14646 ft 343 kts
2026-05-04 22:20 38.11426 -77.28503 14309 ft 341 kts
2026-05-04 22:20 38.13733 -77.27775 13973 ft 339 kts
2026-05-04 22:21 38.16018 -77.27058 13625 ft 337 kts
2026-05-04 22:21 38.18293 -77.26342 13274 ft 335 kts
2026-05-04 22:21 38.20551 -77.25627 12959 ft 335 kts
2026-05-04 22:21 38.22778 -77.24849 12700 ft 335 kts 11°
2026-05-04 22:22 38.25016 -77.24003 12433 ft 335 kts 11°
2026-05-04 22:22 38.27238 -77.23137 12173 ft 333 kts 12°
2026-05-04 22:22 38.29453 -77.22267 11904 ft 332 kts 12°
2026-05-04 22:22 38.31665 -77.21409 11644 ft 331 kts 12°
2026-05-04 22:23 38.33868 -77.20560 11393 ft 329 kts 12°
2026-05-04 22:23 38.36033 -77.19737 11135 ft 328 kts 12°
2026-05-04 22:23 38.38215 -77.18909 10934 ft 326 kts 12°
2026-05-04 22:23 38.40396 -77.18075 10863 ft 326 kts 13°
2026-05-04 22:24 38.42573 -77.17239 10767 ft 326 kts 12°
2026-05-04 22:24 38.44752 -77.16397 10654 ft 326 kts 12°
2026-05-04 22:24 38.46922 -77.15556 10554 ft 325 kts 12°
2026-05-04 22:24 38.49061 -77.14727 10447 ft 325 kts 12°
2026-05-04 22:25 38.51225 -77.13883 10342 ft 325 kts 13°
2026-05-04 22:25 38.53373 -77.13044 10227 ft 317 kts 12°
2026-05-04 22:25 38.55441 -77.12236 10099 ft 304 kts 12°
2026-05-04 22:25 38.57420 -77.11469 9847 ft 297 kts 12°
2026-05-04 22:26 38.59380 -77.10709 9708 ft 293 kts 12°
2026-05-04 22:26 38.61337 -77.09957 9432 ft 293 kts 12°
2026-05-04 22:26 38.63287 -77.09210 9137 ft 293 kts 12°
2026-05-04 22:26 38.65249 -77.08460 8838 ft 293 kts 12°
2026-05-04 22:27 38.67211 -77.07709 8544 ft 293 kts 12°
2026-05-04 22:27 38.69155 -77.07092 8214 ft 289 kts
2026-05-04 22:27 38.71155 -77.06878 7921 ft 287 kts 360°
2026-05-04 22:27 38.73144 -77.06684 7626 ft 287 kts
2026-05-04 22:28 38.75120 -77.06575 7332 ft 283 kts 352°
2026-05-04 22:28 38.77034 -77.07040 7062 ft 277 kts 337°
2026-05-04 22:28 38.78747 -77.08093 6693 ft 269 kts 322°
2026-05-04 22:28 38.80318 -77.09415 6494 ft 271 kts 323°
2026-05-04 22:29 38.81892 -77.10714 6233 ft 273 kts 322°
2026-05-04 22:29 38.83444 -77.12103 6026 ft 270 kts 314°
2026-05-04 22:29 38.84792 -77.13751 5970 ft 267 kts 312°
2026-05-04 22:29 38.86133 -77.15410 5522 ft 267 kts 312°
2026-05-04 22:30 38.87458 -77.17053 5053 ft 268 kts 312°
2026-05-04 22:30 38.88800 -77.18721 4573 ft 268 kts 312°
2026-05-04 22:30 38.90133 -77.20383 4121 ft 266 kts 312°
2026-05-04 22:30 38.91458 -77.22037 3995 ft 263 kts 313°
2026-05-04 22:31 38.92732 -77.23615 4006 ft 245 kts 312°
2026-05-04 22:31 38.93935 -77.25065 3996 ft 229 kts 315°
2026-05-04 22:31 38.95306 -77.26016 3930 ft 227 kts 345°
2026-05-04 22:31 38.96897 -77.25897 3548 ft 235 kts 19°
2026-05-04 22:32 38.98221 -77.24715 3188 ft 239 kts 50°
2026-05-04 22:32 38.98984 -77.22828 2825 ft 239 kts 80°
2026-05-04 22:32 38.98967 -77.20758 2687 ft 225 kts 109°
2026-05-04 22:32 38.98311 -77.18988 2702 ft 217 kts 127°
2026-05-04 22:33 38.97499 -77.17357 2707 ft 217 kts 127°
2026-05-04 22:33 38.96682 -77.15724 2711 ft 216 kts 130°
2026-05-04 22:33 38.95660 -77.14379 2649 ft 213 kts 144°
2026-05-04 22:33 38.94535 -77.13131 2311 ft 213 kts 143°
2026-05-04 22:34 38.93434 -77.11935 2027 ft 201 kts 149°
2026-05-04 22:34 38.92242 -77.11135 1787 ft 184 kts 158°
2026-05-04 22:34 38.91182 -77.10285 1517 ft 178 kts 139°
2026-05-04 22:34 38.90555 -77.08959 1311 ft 171 kts 113°
2026-05-04 22:35 38.90180 -77.07603 1066 ft 153 kts 126°
2026-05-04 22:35 38.89573 -77.06619 865 ft 135 kts 142°
2026-05-04 22:35 38.88901 -77.05804 753 ft 131 kts 143°
2026-05-04 22:35 38.88207 -77.05020 584 ft 134 kts 143°
2026-05-04 22:36 38.87526 -77.04227 389 ft 129 kts 145°
2026-05-04 22:36 38.86744 -77.03897 195 ft 116 kts 183°
2026-05-04 22:36 38.85929 -77.03845 46 ft 116 kts 180°
2026-05-04 22:36 38.85225 -77.03783 23 ft 74 kts 176°
2026-05-04 22:37 38.84966 -77.03756 24 ft 21 kts 178°
2026-05-04 22:37 38.84881 -77.03820 23 ft 8 kts 251°
2026-05-04 22:37 38.84874 -77.03896 24 ft 9 kts 270°
2026-05-04 22:37 38.84910 -77.03951 26 ft 9 kts 353°
2026-05-04 22:38 38.84969 -77.03959 26 ft 8 kts 354°
2026-05-04 22:38 38.85023 -77.03965 24 ft 7 kts 355°
2026-05-04 22:38 38.85084 -77.03970 24 ft 10 kts 358°
2026-05-04 22:38 38.85154 -77.03975 26 ft 10 kts 355°
2026-05-04 22:39 38.85218 -77.03982 24 ft 9 kts 355°
2026-05-04 22:39 38.85278 -77.03989 26 ft 8 kts 354°
2026-05-04 22:39 38.85325 -77.04009 24 ft 7 kts 313°
2026-05-04 22:39 38.85330 -77.04063 24 ft 6 kts 277°
2026-05-04 22:40 38.85362 -77.04103 24 ft 6 kts 328°